Back to catalog

NOAA 16 DEB

AliveSSO
NORAD 41204·DEBRIS·🇺🇸 United States

Launched Sep 21, 2000 from Vandenberg Space Force Base

Loading…

Next Passes (next 24 hours)

TLE

FreshSource: Space-Track

Epoch: Sep 11, 2026, 15:00 UTC

1 41204U 00055DH  26254.62527399  .00001520  00000-0  71050-3 0  9997
2 41204  98.6992 317.0608 0018809 336.5907  23.4413 14.21707146554600

Track NOAA 16 DEB in real time with AllMySat

Download on the App Store